Weather History for Clinton, MO

Change the Weather History Date:

Sunday, January 13, 2013

  Actual Average (KSZL) Record (KSZL)
Temperature  
Mean Temperature 19 °F -  
Max Temperature 26 °F 36 °F 59 °F (2002)
Min Temperature 12 °F 20 °F -4 °F (1997)
Degree Days  
Heating Degree Days 46    
Moisture  
Dew Point 14 °F    
Average Humidity 73    
Maximum Humidity 92    
Minimum Humidity 55    
Precipitation  
Precipitation 0.00 in - - ()
Sea Level Pressure  
Sea Level Pressure 30.21 in    
Wind  
Wind Speed 2 mph (WNW)    
Max Wind Speed 13 mph    
Max Gust Speed -    
Visibility 9 miles    
Events      
Averages and records for this station are not official NWS values.
T = Trace of Precipitation, MM = Missing Value Source: NWS Daily Summary

Daily Weather History Graph

Daily Weather History Graph

Search for Another Location

Airport:

Trip Planner

Search our weather history database for the weather conditions in past years. The results will help you decide how hot, cold, wet, or windy it might be!

Date:

Astronomy

Jan. 13, 2013 Rise Set
Actual Time 7:30 AM CST 5:16 PM CST
Civil Twilight 7:01 AM CST 5:45 PM CST
Nautical Twilight 6:29 AM CST 6:18 PM CST
Astronomical Twilight 5:57 AM CST 6:49 PM CST
Moon 8:32 AM CST (1/13) 7:53 PM CST (1/13)
Length of Visible Light 10h 43m
Length of Day
9h 45m
Waxing Crescent, 5% of the Moon is Illuminated
Jan 13
Waxing Crescent
Jan 18
First Quarter
Jan 26
Full
Feb 3
Last Quarter
Feb 10
New

Hourly Weather History & Observations

Time (CST) Temp. Windchill Dew Point Humidity Pressure Visibility Wind Dir Wind Speed Gust Speed Precip Events Conditions
12:15 AM 26.6 °F - 19.4 °F 74% 30.04 in 10.0 mi Calm Calm - N/A   Overcast
12:35 AM 26.6 °F - 19.4 °F 74% 30.04 in 10.0 mi Calm Calm - N/A   Mostly Cloudy
12:55 AM 23.0 °F - 17.6 °F 80% 30.03 in 10.0 mi Calm Calm - N/A   Partly Cloudy
1:15 AM 23.0 °F - 17.6 °F 80% 30.05 in 10.0 mi Calm Calm - N/A   Clear
1:35 AM 23.0 °F - 17.6 °F 80% 30.07 in 10.0 mi Calm Calm - N/A   Mostly Cloudy
1:55 AM 23.0 °F - 17.6 °F 80% 30.09 in 10.0 mi Calm Calm - N/A   Mostly Cloudy
2:15 AM 21.2 °F - 17.6 °F 86% 30.08 in 10.0 mi Calm Calm - N/A   Scattered Clouds
2:35 AM 21.2 °F - 15.8 °F 80% 30.08 in 10.0 mi Calm Calm - N/A   Partly Cloudy
2:55 AM 21.2 °F - 15.8 °F 80% 30.08 in 10.0 mi Calm Calm - N/A   Clear
3:15 AM 21.2 °F - 17.6 °F 86% 30.08 in 10.0 mi Calm Calm - N/A   Scattered Clouds
3:35 AM 23.0 °F - 17.6 °F 80% 30.06 in 10.0 mi Calm Calm - N/A   Scattered Clouds
3:55 AM 23.0 °F - 15.8 °F 74% 30.10 in 10.0 mi Calm Calm - N/A   Mostly Cloudy
4:15 AM 23.0 °F - 15.8 °F 74% 30.11 in 10.0 mi Calm Calm - N/A   Mostly Cloudy
4:35 AM 23.0 °F - 15.8 °F 74% 30.10 in 10.0 mi Calm Calm - N/A   Mostly Cloudy
4:55 AM 23.0 °F - 15.8 °F 74% 30.12 in 10.0 mi Calm Calm - N/A   Scattered Clouds
5:15 AM 23.0 °F - 14.0 °F 68% 30.13 in 10.0 mi Calm Calm - N/A   Partly Cloudy
5:35 AM 21.2 °F - 14.0 °F 74% 30.14 in 10.0 mi Calm Calm - N/A   Scattered Clouds
5:55 AM 21.2 °F - 14.0 °F 74% 30.15 in 10.0 mi Calm Calm - N/A   Partly Cloudy
6:15 AM 21.2 °F - 14.0 °F 74% 30.16 in 10.0 mi Calm Calm - N/A   Clear
6:35 AM 21.2 °F - 14.0 °F 74% 30.16 in 10.0 mi Calm Calm - N/A   Clear
6:55 AM 21.2 °F - 12.2 °F 68% 30.17 in 10.0 mi Calm Calm - N/A   Clear
7:15 AM 19.4 °F - 12.2 °F 74% 30.17 in 10.0 mi Calm Calm - N/A   Clear
7:35 AM 19.4 °F - 12.2 °F 74% 30.16 in 9.0 mi Calm Calm - N/A   Clear
7:55 AM 17.6 °F - 10.4 °F 73% 30.16 in 9.0 mi Calm Calm - N/A   Clear
8:15 AM 17.6 °F - 10.4 °F 73% 30.18 in 9.0 mi Calm Calm - N/A   Clear
8:35 AM 19.4 °F - 10.4 °F 68% 30.19 in 9.0 mi Calm Calm - N/A   Clear
8:55 AM 19.4 °F 7.9 °F 10.4 °F 68% 30.19 in 8.0 mi NNW 10.4 mph - N/A   Clear
9:15 AM 19.4 °F 7.2 °F 10.4 °F 68% 30.19 in 8.0 mi NNW 11.5 mph - N/A   Clear
9:35 AM 19.4 °F 9.5 °F 12.2 °F 74% 30.23 in 9.0 mi NNW 8.1 mph - N/A   Clear
9:55 AM 21.2 °F 10.1 °F 12.2 °F 68% 30.24 in 9.0 mi NW 10.4 mph - N/A   Clear
10:15 AM 21.2 °F 10.1 °F 12.2 °F 68% 30.25 in 8.0 mi NW 10.4 mph - N/A   Clear
10:35 AM 21.2 °F 11.7 °F 14.0 °F 74% 30.26 in 9.0 mi NW 8.1 mph - N/A   Clear
10:55 AM 21.2 °F 9.5 °F 14.0 °F 74% 30.24 in 8.0 mi NW 11.5 mph - N/A   Clear
11:15 AM 23.0 °F 13.9 °F 14.0 °F 68% 30.23 in 9.0 mi NW 8.1 mph - N/A   Clear
11:35 AM 23.0 °F 13.9 °F 14.0 °F 68% 30.23 in 8.0 mi West 8.1 mph - N/A   Clear
11:55 AM 23.0 °F 13.9 °F 14.0 °F 68% 30.23 in 8.0 mi WNW 8.1 mph - N/A   Clear
12:15 PM 23.0 °F 11.7 °F 14.0 °F 68% 30.22 in 9.0 mi NW 11.5 mph - N/A   Clear
12:35 PM 23.0 °F 11.1 °F 14.0 °F 68% 30.22 in 9.0 mi WNW 12.7 mph - N/A   Clear
12:55 PM 24.8 °F 14.6 °F 14.0 °F 64% 30.21 in 9.0 mi NW 10.4 mph - N/A   Clear
1:15 PM 24.8 °F 14.0 °F 14.0 °F 64% 30.22 in 9.0 mi WNW 11.5 mph - N/A   Clear
1:35 PM 24.8 °F 14.0 °F 14.0 °F 64% 30.23 in 9.0 mi WNW 11.5 mph - N/A   Clear
1:55 PM 26.6 °F 16.8 °F 14.0 °F 59% 30.23 in 9.0 mi WNW 10.4 mph - N/A   Clear
2:15 PM 26.6 °F 16.2 °F 14.0 °F 59% 30.24 in 9.0 mi West 11.5 mph - N/A   Clear
2:35 PM 26.6 °F 16.8 °F 14.0 °F 59% 30.24 in 9.0 mi West 10.4 mph - N/A   Clear
2:55 PM 26.6 °F 17.5 °F 14.0 °F 59% 30.25 in 9.0 mi WNW 9.2 mph - N/A   Clear
3:15 PM 26.6 °F 17.5 °F 14.0 °F 59% 30.26 in 10.0 mi WNW 9.2 mph - N/A   Clear
3:35 PM 26.6 °F 18.2 °F 14.0 °F 59% 30.27 in 9.0 mi West 8.1 mph - N/A   Clear
3:55 PM 26.6 °F 19.1 °F 14.0 °F 59% 30.27 in 10.0 mi West 6.9 mph - N/A   Clear
4:15 PM 26.6 °F - 12.2 °F 55% 30.27 in 10.0 mi Calm Calm - N/A   Clear
4:35 PM 26.6 °F 21.2 °F 14.0 °F 59% 30.27 in 9.0 mi West 4.6 mph - N/A   Clear
4:55 PM 24.8 °F - 14.0 °F 64% 30.27 in 10.0 mi Calm Calm - N/A   Clear
5:15 PM 23.0 °F - 14.0 °F 68% 30.28 in 9.0 mi Calm Calm - N/A   Clear
5:35 PM 23.0 °F - 14.0 °F 68% 30.28 in 9.0 mi Calm Calm - N/A   Clear
5:55 PM 23.0 °F - 12.2 °F 63% 30.28 in 10.0 mi Calm Calm - N/A   Clear
6:15 PM 19.4 °F - 14.0 °F 80% 30.29 in 10.0 mi Calm Calm - N/A   Clear
6:35 PM 21.2 °F - 14.0 °F 74% 30.30 in 10.0 mi Calm Calm - N/A   Clear
6:55 PM 19.4 °F - 12.2 °F 74% 30.29 in 10.0 mi Calm Calm - N/A   Clear
7:15 PM 17.6 °F - 12.2 °F 79% 30.29 in 10.0 mi Calm Calm - N/A   Clear
7:35 PM 15.8 °F - 12.2 °F 86% 30.30 in 10.0 mi Calm Calm - N/A   Clear
7:55 PM 15.8 °F - 12.2 °F 86% 30.31 in 10.0 mi Calm Calm - N/A   Clear
8:15 PM 15.8 °F - 12.2 °F 86% 30.31 in 9.0 mi Calm Calm - N/A   Clear
8:35 PM 17.6 °F - 14.0 °F 86% 30.32 in 9.0 mi Calm Calm - N/A   Clear
8:55 PM 17.6 °F - 14.0 °F 86% 30.31 in 9.0 mi Calm Calm - N/A   Clear
9:15 PM 17.6 °F - 12.2 °F 79% 30.30 in 10.0 mi Calm Calm - N/A   Clear
9:35 PM 17.6 °F - 12.2 °F 79% 30.30 in 9.0 mi Calm Calm - N/A   Clear
9:55 PM 14.0 °F - 10.4 °F 86% 30.31 in 9.0 mi Calm Calm - N/A   Clear
10:15 PM 17.6 °F - 12.2 °F 79% 30.32 in 9.0 mi Calm Calm - N/A   Clear
10:35 PM 14.0 °F - 10.4 °F 86% 30.34 in 9.0 mi Calm Calm - N/A   Clear
10:55 PM 14.0 °F - 10.4 °F 86% 30.34 in 8.0 mi Calm Calm - N/A   Clear
11:35 PM 12.2 °F - 10.4 °F 92% 30.36 in 8.0 mi Calm Calm - N/A   Clear
11:55 PM 12.2 °F - 10.4 °F 92% 30.37 in 5.0 mi Calm Calm - N/A   Clear